When you browse on this site, cookies collect data to enhance your experience and personalize the content and advertising you see.
Visit our Privacy Policy to learn more. By continuing to use the site, you agree to this use of cookies and data.
  • In United Kingdom
  • List of Countries
  • For 7 days
  • Water Temperature
  • Weather Map
  • Weather Widgets
  • user-avatar
    Login

    Hourly Weather Dance

    Today, 16 October, Wednesday

    Time Temperature Precipitation Wind Pressure Humidity
    00:00 +14°C° 0 mm 4 mps 746 mmHg 67%
    01:00 +14°C° 0 mm 4 mps 746 mmHg 69%
    02:00 +14°C° 0 mm 4 mps 746 mmHg 69%
    03:00 +13°C° 0 mm 4 mps 745 mmHg 70%
    04:00 +13°C° 0 mm 4 mps 745 mmHg 71%
    05:00 +12°C° 0 mm 4 mps 745 mmHg 72%
    06:00 +13°C° 0 mm 4 mps 745 mmHg 71%
    07:00 +13°C° 0 mm 4 mps 745 mmHg 70%
    08:00 +13°C° 0 mm 5 mps 745 mmHg 67%
    09:00 +15°C° 0 mm 5 mps 745 mmHg 62%
    10:00 +17°C° 0 mm 6 mps 745 mmHg 57%
    11:00 +20°C° 0 mm 6 mps 745 mmHg 52%
    12:00 +21°C° 0 mm 6 mps 745 mmHg 50%
    13:00 +22°C° 0 mm 6 mps 745 mmHg 47%
    14:00 +23°C° 0 mm 6 mps 745 mmHg 45%
    15:00 +22°C° 0 mm 5 mps 745 mmHg 51%
    16:00 +21°C° 0 mm 4 mps 745 mmHg 57%
    17:00 +20°C° 0 mm 3 mps 745 mmHg 63%
    18:00 +19°C° 0 mm 4 mps 745 mmHg 67%
    19:00 +18°C° 0 mm 4 mps 746 mmHg 71%
    20:00 +17°C° 0 mm 4 mps 746 mmHg 75%
    21:00 +17°C° 0.2 mm 4 mps 747 mmHg 77%
    22:00 +15°C° 0.2 mm 4 mps 747 mmHg 79%
    23:00 +14°C° 0.2 mm 4 mps 747 mmHg 81%

    Tomorrow, 17 October, Thursday

    Time Temperature Precipitation Wind Pressure Humidity
    00:00 +14°C° 0 mm 3 mps 748 mmHg 82%
    01:00 +13°C° 0 mm 3 mps 748 mmHg 83%
    02:00 +12°C° 0 mm 3 mps 748 mmHg 84%
    03:00 +11°C° 0 mm 3 mps 748 mmHg 85%
    04:00 +11°C° 0 mm 3 mps 748 mmHg 85%
    05:00 +10°C° 0 mm 3 mps 748 mmHg 85%
    06:00 +10°C° 0 mm 3 mps 748 mmHg 84%
    07:00 +10°C° 0 mm 3 mps 749 mmHg 83%
    08:00 +10°C° 0 mm 3 mps 749 mmHg 81%
    09:00 +12°C° 0 mm 4 mps 749 mmHg 74%
    10:00 +14°C° 0 mm 4 mps 750 mmHg 66%
    11:00 +15°C° 0 mm 4 mps 750 mmHg 58%
    12:00 +17°C° 0 mm 4 mps 750 mmHg 56%
    13:00 +18°C° 0 mm 4 mps 750 mmHg 53%
    14:00 +19°C° 0 mm 4 mps 750 mmHg 51%
    15:00 +18°C° 0 mm 3 mps 750 mmHg 54%
    16:00 +17°C° 0 mm 3 mps 749 mmHg 58%
    17:00 +17°C° 0 mm 2 mps 749 mmHg 62%
    18:00 +16°C° 0 mm 2 mps 749 mmHg 65%
    19:00 +15°C° 0 mm 2 mps 750 mmHg 67%
    20:00 +14°C° 0 mm 2 mps 750 mmHg 70%
    21:00 +14°C° 0 mm 2 mps 750 mmHg 71%
    22:00 +13°C° 0 mm 2 mps 750 mmHg 73%
    23:00 +13°C° 0 mm 2 mps 750 mmHg 74%

    Day after tomorrow, 18 October, Friday

    Time Temperature Precipitation Wind Pressure Humidity
    00:00 +13°C° 0 mm 2 mps 750 mmHg 74%
    01:00 +13°C° 0 mm 2 mps 750 mmHg 74%
    02:00 +12°C° 0 mm 2 mps 750 mmHg 75%
    03:00 +12°C° 0 mm 2 mps 750 mmHg 75%
    04:00 +12°C° 0 mm 2 mps 750 mmHg 76%
    05:00 +12°C° 0 mm 2 mps 749 mmHg 77%
    06:00 +12°C° 0 mm 2 mps 749 mmHg 79%
    07:00 +12°C° 0 mm 2 mps 750 mmHg 80%
    08:00 +12°C° 0 mm 2 mps 750 mmHg 81%
    09:00 +14°C° 0 mm 2 mps 750 mmHg 76%
    10:00 +16°C° 0 mm 2 mps 750 mmHg 71%
    11:00 +17°C° 0 mm 2 mps 750 mmHg 65%
    12:00 +18°C° 0 mm 2 mps 749 mmHg 63%
    13:00 +19°C° 0 mm 2 mps 749 mmHg 61%
    14:00 +20°C° 0 mm 2 mps 749 mmHg 58%
    15:00 +19°C° 0 mm 2 mps 749 mmHg 62%
    16:00 +19°C° 0 mm 1 mps 748 mmHg 65%
    17:00 +18°C° 0 mm 1 mps 748 mmHg 68%
    18:00 +18°C° 0 mm 1 mps 748 mmHg 69%
    19:00 +16°C° 0 mm 1 mps 748 mmHg 70%
    20:00 +15°C° 0 mm 1 mps 748 mmHg 71%
    21:00 +15°C° 0 mm 1 mps 748 mmHg 72%
    22:00 +15°C° 0 mm 1 mps 748 mmHg 72%
    23:00 +15°C° 0 mm 1 mps 748 mmHg 73%

    19 October, Saturday

    Time Temperature Precipitation Wind Pressure Humidity
    00:00 +14°C° 0 mm 1 mps 748 mmHg 74%
    01:00 +14°C° 0 mm 1 mps 748 mmHg 76%
    02:00 +14°C° 0 mm 1 mps 748 mmHg 77%
    03:00 +13°C° 0 mm 1 mps 748 mmHg 79%
    04:00 +13°C° 0 mm 1 mps 748 mmHg 81%
    05:00 +13°C° 0 mm 1 mps 748 mmHg 83%
    06:00 +13°C° 0 mm 1 mps 748 mmHg 83%
    07:00 +13°C° 0 mm 1 mps 748 mmHg 83%
    08:00 +13°C° 0 mm 1 mps 748 mmHg 83%
    09:00 +15°C° 0 mm 2 mps 748 mmHg 76%
    10:00 +17°C° 0 mm 2 mps 748 mmHg 69%
    11:00 +19°C° 0 mm 3 mps 748 mmHg 62%
    12:00 +20°C° 0 mm 3 mps 747 mmHg 59%
    13:00 +21°C° 0 mm 3 mps 747 mmHg 55%
    14:00 +22°C° 0 mm 4 mps 747 mmHg 52%
    15:00 +21°C° 0 mm 3 mps 747 mmHg 56%
    16:00 +20°C° 0 mm 3 mps 746 mmHg 60%
    17:00 +19°C° 0 mm 2 mps 746 mmHg 63%
    18:00 +18°C° 0 mm 3 mps 746 mmHg 65%
    19:00 +17°C° 0 mm 3 mps 747 mmHg 67%
    20:00 +17°C° 0 mm 3 mps 747 mmHg 69%
    21:00 +16°C° 0 mm 3 mps 747 mmHg 71%
    22:00 +16°C° 0 mm 3 mps 747 mmHg 72%
    23:00 +14°C° 0 mm 3 mps 747 mmHg 74%

    20 October, Sunday

    Time Temperature Precipitation Wind Pressure Humidity
    00:00 +14°C° 0 mm 3 mps 747 mmHg 76%
    01:00 +14°C° 0 mm 3 mps 747 mmHg 78%
    02:00 +13°C° 0 mm 3 mps 747 mmHg 80%
    03:00 +13°C° 0 mm 3 mps 747 mmHg 80%
    04:00 +13°C° 0 mm 3 mps 747 mmHg 81%
    05:00 +13°C° 0 mm 2 mps 747 mmHg 81%
    06:00 +12°C° 0 mm 3 mps 747 mmHg 79%
    07:00 +13°C° 0 mm 3 mps 747 mmHg 77%
    08:00 +13°C° 0 mm 3 mps 747 mmHg 75%
    09:00 +16°C° 0 mm 3 mps 748 mmHg 68%
    10:00 +18°C° 0 mm 4 mps 748 mmHg 60%
    11:00 +20°C° 0 mm 5 mps 748 mmHg 52%
    12:00 +21°C° 0 mm 5 mps 748 mmHg 49%
    13:00 +22°C° 0 mm 5 mps 747 mmHg 46%
    14:00 +23°C° 0 mm 5 mps 747 mmHg 44%
    15:00 +22°C° 0 mm 4 mps 747 mmHg 48%
    16:00 +21°C° 0 mm 3 mps 747 mmHg 51%
    17:00 +20°C° 0 mm 3 mps 747 mmHg 55%
    18:00 +19°C° 0 mm 3 mps 747 mmHg 58%
    19:00 +18°C° 0 mm 3 mps 748 mmHg 60%
    20:00 +17°C° 0 mm 4 mps 748 mmHg 62%
    21:00 +17°C° 0 mm 3 mps 749 mmHg 66%
    22:00 +16°C° 0 mm 3 mps 749 mmHg 71%
    23:00 +14°C° 0 mm 3 mps 749 mmHg 75%

    21 October, Monday

    Time Temperature Precipitation Wind Pressure Humidity
    00:00 +14°C° 0 mm 3 mps 749 mmHg 77%
    01:00 +13°C° 0 mm 3 mps 750 mmHg 80%
    02:00 +14°C° 0 mm 2 mps 750 mmHg 82%
    03:00 +13°C° 0 mm 2 mps 750 mmHg 84%
    04:00 +13°C° 0 mm 2 mps 750 mmHg 86%
    05:00 +13°C° 0 mm 2 mps 750 mmHg 89%
    06:00 +13°C° 0 mm 2 mps 751 mmHg 89%
    07:00 +13°C° 0 mm 1 mps 751 mmHg 88%
    08:00 +13°C° 0 mm 1 mps 751 mmHg 88%
    09:00 +15°C° 0 mm 1 mps 751 mmHg 81%
    10:00 +16°C° 0 mm 1 mps 752 mmHg 73%
    11:00 +19°C° 0 mm 1 mps 752 mmHg 66%
    12:00 +20°C° 0 mm 1 mps 752 mmHg 63%
    13:00 +19°C° 0 mm 0 mps 752 mmHg 60%
    14:00 +20°C° 0 mm 0 mps 752 mmHg 57%
    15:00 +19°C° 0 mm 0 mps 752 mmHg 60%
    16:00 +20°C° 0 mm 1 mps 752 mmHg 64%
    17:00 +19°C° 0 mm 1 mps 752 mmHg 67%
    18:00 +18°C° 0 mm 1 mps 752 mmHg 70%
    19:00 +17°C° 0 mm 2 mps 752 mmHg 72%
    20:00 +16°C° 0 mm 2 mps 752 mmHg 75%
    21:00 +16°C° 0 mm 2 mps 752 mmHg 76%
    22:00 +15°C° 0 mm 2 mps 752 mmHg 78%
    23:00 +15°C° 0 mm 2 mps 753 mmHg 80%
    Show more